Wind_Speed
35 33 34 34 33 29 31 32 32 32 32 31 32 35 34 35 35 37 41 39 37 35 34 34 34 33 28 26 25 25 25 24 24 23 25 24 24 23 22 21 17 18 20
36 37 35 37 39 41 42 42 39 38 37 37 36 35 35 36 38 42 43 45 42 42 42 39 36 37 31 27 26 27 27 26 25 25 26 25 24 25 24 22 22 20 20
38 40 42 43 44 46 46 46 43 42 39 38 38 38 38 38 39 41 42 44 47 47 36 35 45 44 34 32 31 30 30 29 27 27 27 27 27 26 26 25 24 24 23
36 40 42 44 45 48 48 47 47 43 42 42 40 40 39 40 39 40 41 40 31 31 26 31 29 35 39 44 44 33 30 31 30 29 29 29 29 28 27 28 26 25 25
32 35 38 42 45 46 46 48 47 46 46 45 43 41 39 39 35 32 31 34 31 32 28 30 29 37 37 42 43 32 40 31 30 32 33 32 31 31 30 29 29 27 27
33 34 35 37 39 43 43 38 46 45 45 47 43 41 39 38 36 30 26 25 25 27 29 28 24 27 33 41 32 38 45 30 40 39 36 36 34 33 33 32 31 30 30
33 35 37 39 41 40 40 38 42 45 46 47 45 41 40 40 37 34 29 26 26 26 27 28 26 27 33 37 42 43 35 28 41 48 43 40 35 35 35 35 34 32 31
28 30 34 37 39 40 41 41 41 39 39 41 43 44 41 40 39 35 32 29 29 28 29 28 30 27 32 37 34 45 44 47 41 46 50 55 47 39 38 37 37 35 34
31 31 31 32 33 35 38 39 40 40 39 38 38 41 41 44 40 39 36 34 33 30 27 29 29 27 31 33 33 36 30 26 32 44 52 50 50 51 42 41 41 37 35
31 32 33 32 32 32 34 36 37 39 41 39 39 38 44 43 46 42 38 36 35 33 30 30 31 31 32 34 30 33 35 35 38 42 43 48 46 55 52 43 43 42 38
31 31 33 33 33 32 32 32 35 40 40 41 41 40 44 43 46 46 43 37 36 36 32 32 32 33 36 39 41 38 33 38 40 40 39 46 43 42 60 44 42 42 40
30 31 32 32 33 33 32 30 32 32 34 39 42 43 41 39 37 40 42 37 36 37 35 38 39 39 38 41 42 43 38 37 45 44 43 44 46 35 53 49 45 40 42
31 31 31 31 32 32 31 30 29 29 30 33 35 40 44 45 45 42 41 41 43 43 44 41 37 39 41 42 42 43 44 45 40 42 44 46 47 43 41 56 49 49 49
30 30 30 30 30 28 28 28 27 28 31 36 39 39 38 39 44 45 46 47 46 45 46 41 36 36 41 42 44 45 45 48 42 38 36 40 44 46 44 46 60 62 52
27 28 29 29 26 23 21 21 24 25 28 27 24 22 25 27 32 37 42 45 49 48 46 42 34 36 41 44 44 43 45 45 46 38 37 47 45 43 45 42 33 68 62
26 26 26 24 20 15 15 16 17 20 22 18 17 18 19 20 22 25 28 32 36 39 39 36 33 33 36 38 39 41 43 43 44 45 51 36 33 35 40 40 47 43 48
25 23 23 20 17 14 12 13 16 16 16 13 11 9 9 14 14 14 16 19 22 25 25 26 27 26 29 31 33 36 38 40 41 42 46 45 44 31 27 36 41 46 34
23 20 21 19 17 18 14 15 18 18 16 15 13 11 6 6 5 5 6 9 12 16 15 16 20 20 23 24 26 28 30 34 35 38 45 40 38 39 40 44 37 43 52
20 18 17 17 14 14 15 17 17 16 18 14 14 10 10 10 8 6 5 5 6 8 10 10 16 21 23 21 20 21 25 29 30 34 39 36 42 42 39 36 46 33 34
17 15 14 14 17 17 17 17 18 18 16 16 15 13 11 11 9 7 7 8 8 8 9 11 12 11 13 19 21 19 19 23 24 30 37 36 35 42 44 43 41 37 36
14 14 13 16 17 17 16 15 15 15 15 13 13 12 10 9 7 6 7 9 9 9 9 9 10 11 11 12 12 13 17 22 25 28 34 38 38 40 42 44 47 45 40
12 13 14 17 15 15 14 13 13 14 15 14 14 13 12 10 10 8 5 5 6 7 7 8 9 10 11 12 12 11 10 10 16 22 28 30 36 37 40 40 43 44 47
12 13 13 14 13 13 13 12 12 12 11 11 12 12 12 12 10 9 8 8 7 6 7 8 8 9 9 9 10 12 15 15 13 11 16 25 32 37 39 41 42 42 47
12 11 11 11 11 10 10 9 9 10 10 10 11 12 13 13 13 13 12 12 12 12 11 11 11 12 13 12 13 12 13 16 18 14 13 17 18 21 31 41 47 48 48
11 11 9 10 11 11 10 9 9 10 10 10 11 12 13 14 15 15 16 16 16 15 14 14 15 15 15 15 15 17 17 16 17 20 19 21 18 17 24 27 28 33 43
9 10 9 9 9 9 10 10 12 12 12 12 12 12 11 12 12 13 14 15 15 16 17 18 18 19 20 22 23 24 24 24 24 25 24 25 24 23 18 22 28 32 32
Wind_Direction
268 268 269 272 269 275 279 277 271 271 269 269 265 264 265 261 257 258 258 252 251 251 252 249 256 257 255 257 253 251 249 248 248 240 232 234 234 235 237 238 237 230 231
269 270 265 267 265 268 275 278 276 276 273 271 273 269 270 268 265 259 255 252 250 253 247 245 236 243 247 256 256 253 251 246 246 244 236 238 237 237 238 238 237 235 235
266 264 265 267 266 269 271 271 270 270 271 272 273 274 274 274 271 268 264 264 255 256 279 243 244 230 236 239 247 251 248 248 242 241 239 238 240 238 238 238 236 238 238
268 267 268 266 269 271 270 265 265 266 269 270 271 273 276 276 274 272 273 279 285 288 295 286 295 264 237 222 233 239 243 245 246 242 240 237 238 236 236 237 240 238 242
277 273 271 269 268 267 269 269 267 264 265 267 271 272 274 275 274 272 273 275 282 290 291 283 288 281 266 264 266 246 238 235 242 245 241 238 236 237 234 233 235 239 240
289 287 284 279 274 270 270 267 267 269 263 264 266 268 270 270 270 273 274 277 281 279 280 281 280 258 268 253 260 290 235 229 246 235 243 242 237 236 235 232 232 234 238
292 291 291 291 290 287 284 280 269 264 273 267 269 266 265 265 264 266 273 275 277 279 285 289 282 269 267 273 256 269 205 267 248 241 232 231 237 238 237 234 232 230 233
300 295 291 288 288 288 287 283 278 281 277 275 271 271 269 266 266 265 266 269 274 279 282 284 286 276 268 264 256 259 260 286 233 237 233 239 231 241 237 235 234 231 231
306 304 301 297 291 287 285 284 283 279 275 275 273 269 271 269 266 265 263 264 269 275 278 281 280 278 274 268 263 256 247 239 241 237 240 238 235 230 236 231 234 231 231
302 301 300 299 298 294 286 281 280 279 279 275 266 269 265 269 265 261 257 258 262 267 270 270 275 273 265 261 259 251 244 240 241 239 245 234 243 242 225 232 229 230 230
307 304 299 296 296 296 293 289 281 275 274 272 271 267 264 265 269 263 258 250 252 257 262 272 271 268 262 259 257 255 251 244 238 237 238 239 249 259 226 229 229 228 228
304 302 300 297 293 291 291 295 294 288 279 270 268 266 262 258 257 259 259 252 246 245 255 269 268 264 257 255 257 254 250 249 239 236 237 237 237 246 226 220 227 228 231
308 304 300 297 293 288 289 288 290 286 280 275 273 270 266 263 260 256 257 258 259 260 264 264 261 258 261 258 255 253 249 249 247 243 246 246 242 237 239 228 224 222 226
310 308 305 300 294 292 288 285 288 284 282 283 281 276 270 264 260 258 257 261 264 270 271 268 262 262 257 259 259 256 250 246 244 246 248 249 245 242 242 248 230 220 219
313 310 307 302 299 299 297 297 298 282 291 293 286 287 280 274 268 261 258 259 263 268 267 266 273 264 254 252 255 256 254 252 247 251 260 243 246 238 238 239 246 225 224
312 311 309 306 306 305 314 314 310 300 308 312 308 308 306 286 273 268 265 261 261 265 272 278 273 258 249 249 251 254 255 253 252 247 247 246 227 229 236 237 238 236 227
312 312 308 306 303 301 312 318 319 322 328 341 331 316 298 294 285 280 275 273 273 277 281 276 271 263 253 250 249 250 253 253 251 254 253 258 250 258 245 237 246 251 229
310 311 308 304 294 289 298 309 307 306 307 318 320 333 352 356 0 343 314 306 296 293 288 291 286 279 273 267 250 249 249 249 247 251 254 245 250 262 263 250 246 242 246
309 311 311 313 297 289 298 300 304 306 309 310 311 311 315 315 315 318 344 355 353 358 354 325 291 283 280 275 274 266 252 246 243 242 248 250 250 250 257 250 254 242 233
306 308 304 309 308 306 304 301 302 307 308 309 309 310 304 289 288 296 302 320 332 331 342 351 349 333 307 288 278 266 267 260 247 241 242 244 246 247 249 249 254 259 245
302 303 294 308 308 308 308 308 307 306 311 314 313 314 313 309 307 332 331 317 315 317 319 318 316 323 330 330 318 294 276 266 258 251 251 249 248 250 251 252 252 257 257
301 305 303 311 314 314 314 313 311 314 315 318 321 325 327 333 341 345 341 315 320 317 316 314 318 310 313 309 310 317 314 297 274 262 256 256 254 257 255 254 253 251 249
303 309 312 312 317 318 318 316 318 320 323 325 328 331 334 335 341 348 350 350 354 349 345 343 343 338 334 331 322 320 312 305 296 281 270 263 257 260 258 255 253 254 252
310 312 313 315 318 317 314 313 320 323 327 330 333 336 336 336 338 344 344 345 348 345 345 340 338 336 335 336 333 331 327 324 318 315 290 270 266 266 265 260 258 259 257
309 312 316 323 325 320 318 322 326 328 333 335 338 336 335 332 335 337 339 337 336 334 335 334 331 328 327 327 328 329 326 318 310 309 306 302 290 268 264 267 266 265 262
308 310 317 311 309 316 321 329 334 338 341 343 342 338 337 334 330 328 326 325 325 328 329 328 331 332 330 327 325 322 320 318 313 308 306 303 297 291 267 265 265 265 268
Height
3141 3140 3140 3140 3139 3139 3138 3137 3136 3135 3136 3135 3135 3135 3134 3136 3135 3136 3137 3136 3137 3139 3141 3142 3146 3147 3147 3147 3147 3148 3149 3150 3151 3151 3152 3153 3154 3154 3156 3159 3160 3161 3163
3133 3132 3132 3132 3133 3133 3132 3130 3130 3130 3129 3128 3128 3128 3128 3129 3128 3128 3129 3127 3128 3130 3129 3132 3132 3135 3138 3139 3140 3141 3143 3144 3146 3147 3148 3150 3150 3151 3152 3154 3157 3158 3159
3123 3124 3123 3123 3124 3123 3123 3122 3122 3121 3120 3120 3119 3120 3120 3120 3120 3120 3120 3117 3115 3117 3120 3120 3123 3105 3122 3126 3128 3129 3134 3137 3139 3141 3143 3145 3146 3147 3147 3149 3152 3154 3155
3116 3115 3114 3114 3114 3113 3112 3112 3112 3113 3112 3109 3110 3111 3111 3111 3112 3112 3112 3110 3109 3111 3107 3111 3113 3103 3095 3089 3107 3119 3123 3129 3132 3134 3136 3138 3140 3141 3142 3143 3146 3149 3151
3108 3107 3106 3105 3104 3103 3102 3100 3102 3103 3102 3101 3101 3102 3103 3103 3104 3105 3105 3105 3106 3104 3101 3104 3104 3106 3108 3106 3091 3106 3114 3121 3125 3127 3129 3131 3133 3135 3135 3136 3138 3142 3145
3101 3099 3098 3097 3096 3093 3093 3092 3092 3092 3091 3091 3093 3094 3095 3095 3096 3097 3097 3099 3099 3099 3097 3098 3099 3100 3100 3102 3105 3101 3094 3110 3114 3114 3119 3123 3124 3127 3129 3130 3131 3134 3138
3094 3092 3090 3088 3085 3084 3083 3083 3084 3084 3082 3080 3081 3085 3087 3086 3088 3089 3089 3090 3091 3092 3093 3091 3091 3092 3094 3094 3096 3095 3088 3099 3102 3106 3108 3111 3114 3119 3121 3124 3125 3127 3130
3087 3085 3083 3081 3078 3076 3074 3073 3072 3073 3073 3073 3073 3072 3076 3079 3079 3082 3082 3081 3082 3084 3085 3086 3084 3086 3086 3084 3086 3085 3085 3084 3087 3094 3097 3102 3104 3109 3112 3115 3118 3120 3122
3081 3079 3076 3074 3071 3069 3067 3066 3064 3063 3063 3064 3064 3064 3064 3065 3070 3071 3073 3075 3075 3074 3076 3077 3078 3078 3076 3075 3076 3077 3079 3080 3080 3084 3087 3089 3090 3096 3101 3105 3109 3112 3114
3075 3072 3069 3066 3063 3060 3058 3057 3056 3055 3053 3053 3054 3053 3055 3054 3055 3060 3063 3064 3065 3066 3066 3067 3066 3065 3066 3066 3068 3067 3070 3070 3071 3075 3079 3078 3082 3082 3086 3094 3099 3103 3106
3068 3065 3063 3060 3056 3052 3049 3047 3046 3045 3044 3044 3043 3043 3044 3044 3044 3045 3050 3054 3055 3056 3055 3054 3055 3056 3055 3057 3055 3058 3060 3061 3063 3063 3064 3068 3071 3072 3074 3081 3087 3093 3096
3062 3058 3055 3052 3048 3045 3042 3039 3037 3036 3034 3032 3032 3031 3032 3033 3034 3034 3035 3041 3043 3046 3046 3046 3044 3042 3044 3044 3045 3046 3049 3048 3048 3050 3051 3054 3057 3060 3063 3070 3075 3081 3087
3056 3053 3049 3045 3041 3037 3034 3032 3029 3027 3025 3023 3021 3020 3019 3020 3023 3025 3024 3026 3027 3032 3034 3035 3034 3032 3031 3033 3034 3035 3037 3036 3038 3042 3044 3047 3050 3051 3053 3059 3064 3068 3075
3050 3046 3042 3038 3033 3029 3026 3024 3022 3021 3018 3015 3011 3009 3007 3007 3008 3011 3014 3014 3013 3014 3016 3018 3022 3022 3022 3021 3022 3023 3025 3028 3031 3033 3036 3038 3038 3040 3042 3046 3049 3053 3058
3043 3039 3036 3032 3026 3022 3020 3018 3016 3014 3012 3006 3002 2999 2997 2996 2996 2997 3000 3002 3002 3002 3003 3005 3008 3009 3010 3010 3010 3013 3014 3017 3020 3024 3025 3026 3027 3029 3030 3033 3033 3039 3044
3037 3033 3029 3026 3022 3018 3016 3014 3012 3010 3006 3000 2996 2993 2991 2990 2989 2989 2990 2990 2991 2991 2991 2993 2996 2997 2998 2997 2999 3001 3003 3006 3009 3013 3015 3014 3014 3016 3022 3024 3023 3015 3027
3033 3029 3025 3022 3019 3016 3013 3012 3010 3007 3005 2999 2996 2991 2988 2987 2985 2983 2983 2983 2983 2983 2984 2985 2984 2986 2987 2988 2989 2991 2992 2995 2998 3001 3002 3005 3003 3005 3007 3012 3012 3011 3001
3029 3025 3021 3019 3016 3014 3011 3009 3007 3005 3003 2999 2996 2991 2988 2986 2983 2981 2979 2978 2978 2979 2980 2978 2976 2977 2978 2979 2981 2982 2982 2985 2988 2991 2992 2996 2998 2999 3003 2999 3001 3002 3006
3024 3021 3017 3015 3013 3011 3009 3007 3005 3003 3001 2997 2994 2991 2988 2986 2983 2980 2978 2978 2977 2974 2974 2973 2972 2972 2971 2972 2973 2974 2975 2977 2978 2981 2983 2986 2988 2991 2992 2992 2992 2993 2999
3021 3018 3015 3013 3011 3009 3007 3005 3002 2999 2998 2995 2992 2989 2987 2986 2984 2980 2978 2975 2973 2973 2972 2970 2969 2968 2967 2966 2967 2969 2969 2969 2970 2973 2974 2977 2978 2980 2982 2984 2987 2988 2989
3018 3016 3014 3012 3009 3006 3005 3003 3000 2998 2995 2993 2990 2988 2985 2983 2981 2976 2974 2974 2973 2971 2969 2969 2967 2967 2965 2963 2962 2962 2962 2962 2965 2966 2965 2967 2969 2970 2971 2974 2978 2978 2980
3015 3014 3012 3009 3006 3004 3003 3001 2998 2996 2993 2990 2988 2985 2982 2980 2977 2975 2974 2974 2972 2970 2968 2966 2964 2963 2962 2961 2959 2959 2958 2957 2958 2959 2958 2960 2960 2959 2960 2962 2963 2966 2970
3013 3011 3009 3007 3005 3003 3002 3000 2997 2995 2993 2990 2987 2984 2981 2978 2977 2975 2973 2971 2969 2968 2966 2964 2962 2961 2959 2958 2956 2955 2953 2952 2953 2954 2953 2951 2952 2951 2952 2951 2951 2954 2957
3011 3009 3007 3005 3004 3003 3001 3000 2997 2995 2992 2990 2987 2984 2981 2978 2975 2972 2971 2969 2967 2965 2963 2962 2959 2957 2956 2954 2952 2951 2951 2947 2945 2947 2948 2947 2947 2945 2941 2942 2941 2942 2943
3008 3007 3005 3003 3002 3001 3000 2998 2996 2994 2991 2988 2985 2983 2980 2978 2975 2972 2969 2967 2965 2963 2961 2959 2957 2955 2952 2950 2949 2947 2946 2946 2943 2941 2940 2939 2939 2940 2936 2935 2934 2932 2930
3006 3004 3003 3002 3001 3000 2999 2997 2994 2991 2989 2986 2984 2981 2979 2977 2975 2973 2970 2968 2965 2963 2960 2958 2955 2952 2950 2947 2943 2941 2939 2938 2937 2935 2934 2933 2931 2930 2932 2929 2925 2923 2921